Savoy, IL

3:05 PM CDT on July 24, 2016 (GMT -0500)
Univ Of Illinois-Willard

Weather History for KCMI - May, 2014

Change the Weather History Date:

Monday, May 26, 2014

  Actual Average Record
Temperature  
Mean Temperature 75 °F 66 °F  
Max Temperature 89 °F 79 °F 95 °F (2012)
Min Temperature 60 °F 55 °F 41 °F (2002)
Degree Days  
Heating Degree Days 0 2  
Month to date heating degree days 134 131  
Since 1 July heating degree days 6486 5795  
Cooling Degree Days 10 4  
Month to date cooling degree days 91 60  
Year to date cooling degree days 94 71  
Growing Degree Days 24 (Base 50)    
Moisture  
Dew Point 62 °F    
Average Humidity 67    
Maximum Humidity 90    
Minimum Humidity 43    
Precipitation  
Precipitation 0.00 in 0.12 in 0.51 in (1951)
Month to date precipitation 5.46 3.85  
Year to date precipitation 13.36 14.46  
Sea Level Pressure  
Sea Level Pressure 30.02 in    
Wind  
Wind Speed 11 mph (South)    
Max Wind Speed 24 mph    
Max Gust Speed 30 mph    
Visibility 10 miles    
Events      
T = Trace of Precipitation, MM = Missing Value Source: NWS Daily Summary

Daily Weather History Graph

Daily Weather History Graph

Search for Another Location

Airport or City:

Trip Planner

Search our weather history database for the weather conditions in past years. The results will help you decide how hot, cold, wet, or windy it might be!

Date:

Astronomy

May. 26, 2014 Rise Set
Actual Time 5:29 AM CDT 8:11 PM CDT
Civil Twilight 4:57 AM CDT 8:43 PM CDT
Nautical Twilight 4:18 AM CDT 9:22 PM CDT
Astronomical Twilight 3:33 AM CDT 10:08 PM CDT
Moon 4:11 AM CDT (5/26) 6:13 PM CDT (5/26)
Length of Visible Light 15h 45m
Length of Day
14h 42m
Waning Crescent, 5% of the Moon is Illuminated
May 26
Waning Crescent
May 28
New
Jun 5
First Quarter
Jun 12
Full
Jun 19
Last Quarter

Hourly Weather History & Observations

Time (CDT) Temp. Heat Index Dew Point Humidity Pressure Visibility Wind Dir Wind Speed Gust Speed Precip Events Conditions
12:53 AM 63.0 °F - 57.0 °F 81% 30.07 in 10.0 mi ESE 4.6 mph - N/A   Clear
1:53 AM 63.0 °F - 57.9 °F 84% 30.06 in 10.0 mi ESE 5.8 mph - N/A   Clear
2:53 AM 62.1 °F - 57.0 °F 84% 30.05 in 10.0 mi ESE 5.8 mph - N/A   Clear
4:53 AM 60.1 °F - 57.0 °F 90% 30.05 in 10.0 mi SE 4.6 mph - N/A   Clear
5:53 AM 62.1 °F - 57.0 °F 84% 30.06 in 10.0 mi SE 6.9 mph - N/A   Clear
6:53 AM 64.9 °F - 59.0 °F 81% 30.07 in 10.0 mi SSE 6.9 mph - N/A   Partly Cloudy
7:53 AM 71.1 °F - 61.0 °F 70% 30.07 in 10.0 mi SSW 12.7 mph - N/A   Clear
8:53 AM 75.9 °F - 64.0 °F 67% 30.07 in 10.0 mi SSW 9.2 mph - N/A   Clear
9:53 AM 81.0 °F 82.7 °F 64.9 °F 58% 30.06 in 9.0 mi SSW 12.7 mph - N/A   Clear
10:53 AM 82.0 °F 83.8 °F 64.9 °F 56% 30.05 in 10.0 mi SW 9.2 mph - N/A   Clear
12:53 PM 86.0 °F 87.3 °F 64.0 °F 48% 30.03 in 10.0 mi SSW 8.1 mph - N/A   Partly Cloudy
1:53 PM 87.1 °F 88.3 °F 64.0 °F 46% 30.01 in 10.0 mi SSW 15.0 mph 21.9 mph N/A   Scattered Clouds
2:53 PM 86.0 °F 86.3 °F 62.1 °F 44% 29.99 in 10.0 mi SSW 16.1 mph - N/A   Partly Cloudy
3:53 PM 88.0 °F 88.4 °F 62.1 °F 42% 29.96 in 10.0 mi SSW 17.3 mph - N/A   Partly Cloudy
4:53 PM 87.1 °F 88.3 °F 64.0 °F 46% 29.96 in 10.0 mi SSW 18.4 mph - N/A   Scattered Clouds
5:53 PM 84.9 °F 87.1 °F 66.0 °F 53% 29.95 in 10.0 mi SW 21.9 mph 28.8 mph N/A   Mostly Cloudy
6:53 PM 81.0 °F 82.7 °F 64.9 °F 58% 29.95 in 10.0 mi SW 17.3 mph - N/A   Partly Cloudy
7:53 PM 78.1 °F - 63.0 °F 60% 29.98 in 10.0 mi WSW 16.1 mph - N/A   Clear
8:53 PM 73.9 °F - 63.0 °F 68% 29.99 in 10.0 mi SW 10.4 mph - N/A   Clear
10:53 PM 72.0 °F - 64.9 °F 78% 30.01 in 10.0 mi South 9.2 mph - N/A   Clear
11:53 PM 73.0 °F - 64.9 °F 76% 30.00 in 10.0 mi SW 9.2 mph - N/A   Clear